Tracking 19817 objects as of 17-Aug-2019
HD Live streaming from Space Station
objects crossing your sky now

FENGYUN 1C DEB

Track FENGYUN 1C DEB now!
10-day predictions


NORAD ID: 36680
Int'l Code: 1999-025DZA
Perigee: 709.1 km
Apogee: 1,000.9 km
Inclination: 98.7 °
Period: 101.9 minutes
Semi major axis: 7225 km
RCS: 0.0016 m2 (small)
Launch date: May 10, 1999
Source: People's Republic of China (PRC)
Launch site: Taiyaun Space Center, China (TSC)

Note: This is SATELLITE DEBRIS
aabbcc
Your satellite tracking list
Your tracking list is empty




NASA's NSSDC Master Catalog

Two Line Element Set (TLE):
1 36680U 99025DZA 19228.60570884 +.00000029 +00000-0 +31349-4 0  9993
2 36680 098.6915 275.6460 0201896 039.4488 111.7172 14.13378308316294
Source of the keplerian elements: AFSPC